{"data":{"norad_id":59089,"intl_designator":"2024-041R","name":"STARLINK-31307","alt_names":[],"object_type":"PAYLOAD","status":"ACTIVE","operator":null,"country":"US","launch_date":"2024-02-29","launch_site_code":"AFETR","launch_vehicle":null,"mission":null,"orbit_class":"UNKNOWN","rcs_meters":null,"size_class":null,"mass_kg":null,"dimensions":null,"purposes":["comms"],"wikipedia_slug":null,"has_3d_model":false,"image_url":null,"decayed_at":null,"tle_current":{"epoch":"2026-05-24T16:03:30.402432Z","epoch_age_seconds":114363,"freshness":"FRESH","line1":"1 59089U 24041R   26144.66910188  .00001542  00000+0  65534-4 0  9996","line2":"2 59089  43.0025 241.4429 0001514 268.9003  91.1675 15.27584059125948","mean_motion":15.27584059,"eccentricity":0.0001514,"inclination_deg":43.0025,"raan_deg":241.4429,"arg_perigee_deg":268.9003,"mean_anomaly_deg":91.1675,"bstar":6.5534e-5,"rev_number":12594,"period_min":94.266498233993,"perigee_km":481.99816022554,"apogee_km":484.07572369516,"semimajor_km":6861.1739419603,"source":"CELESTRAK","updated_at":"2026-05-25T13:38:18.830819Z"}}}